^^
Datos históricos de la estación: Murcia-Puente Tocinos
Diario Informe para Julio 5, 2019 Unidades:  Inglés    Métrico   Ambas
Diario Semanal Mensual Anual Configurable
  Máximo: Mínimo: Media:
Temperatura: 91.2 °F 74.1 °F 81.7 °F
Punto de rocio: 71.2 °F 65.5 °F 68.2 °F
Humedad: 84% 43% 65%
Velocidad viento: 13mph 1mph 5.2mph
Racha viento: 22mph - -
Viento- - SE
Presión: 30 in 29.9 in -
Precipitación: 0 in    
Historical Graphs
 
 
Tabla de datos para Julio 5, 2019
Hora Temperatura Punto de rocio Presión Viento Velocidad viento Racha viento Humedad Intensidad lluvia(por hora) Nubes
00:00 77.4 °F 70.7 °F 30 in NE 5 mph 6 mph 80% 0 in CLR
00:05 77.4 °F 70.7 °F 30 in NE 5 mph 6 mph 80% 0 in CLR
00:10 77.2 °F 70.5 °F 30 in ENE 3.6 mph 4.7 mph 80% 0 in CLR
00:15 77.2 °F 70.5 °F 30 in NE 3 mph 5 mph 80% 0 in CLR
00:20 77.2 °F 70.5 °F 30 in NE 2 mph 5 mph 80% 0 in CLR
00:25 77.2 °F 70.5 °F 30 in NNE 2.9 mph 3.5 mph 80% 0 in CLR
00:30 77.4 °F 70.7 °F 30 in NNW 2.9 mph 3.5 mph 80% 0 in CLR
00:35 77.4 °F 70.7 °F 30 in North 2 mph 4 mph 80% 0 in CLR
00:40 77.4 °F 70.7 °F 30 in NNE 1.8 mph 3.5 mph 80% 0 in CLR
00:45 77.4 °F 70.7 °F 30 in NE 2 mph 5 mph 80% 0 in CLR
00:50 77.2 °F 70.9 °F 30 in ENE 2.9 mph 4.6 mph 81% 0 in CLR
00:55 77 °F 71.1 °F 30 in NE 2 mph 6 mph 82% 0 in CLR
01:00 77 °F 71.1 °F 30 in North 3 mph 5 mph 82% 0 in CLR
01:05 76.8 °F 70.9 °F 30 in NNW 3 mph 5 mph 82% 0 in CLR
01:10 76.8 °F 70.9 °F 30 in North 2.9 mph 2.3 mph 82% 0 in CLR
01:15 76.8 °F 70.9 °F 30 in NNW 2 mph 6 mph 82% 0 in CLR
01:20 76.8 °F 71.2 °F 30 in NNE 2.9 mph 6.9 mph 83% 0 in CLR
01:25 76.6 °F 71.1 °F 30 in North 2 mph 7 mph 83% 0 in CLR
01:30 76.6 °F 71.1 °F 30 in NNE 3 mph 5 mph 83% 0 in CLR
01:35 76.5 °F 71.2 °F 30 in NNE 3 mph 5 mph 84% 0 in CLR
01:40 76.5 °F 71.2 °F 30 in NNE 3.1 mph 2.3 mph 84% 0 in CLR
01:45 76.5 °F 71.2 °F 30 in NNE 3 mph 5 mph 84% 0 in CLR
01:50 76.3 °F 71.1 °F 30 in NNE 2 mph 5 mph 84% 0 in CLR
01:55 76.3 °F 71.1 °F 30 in NNE 2 mph 3 mph 84% 0 in CLR
02:00 76.3 °F 71.1 °F 30 in North 2 mph 7 mph 84% 0 in CLR
02:05 76.3 °F 71.1 °F 30 in NW 2 mph 7 mph 84% 0 in CLR
02:10 76.1 °F 70.9 °F 30 in WNW 5 mph 8 mph 84% 0 in CLR
02:15 75.9 °F 70.7 °F 30 in WNW 5 mph 5 mph 84% 0 in CLR
02:20 75.9 °F 70.7 °F 30 in NW 2 mph 6 mph 84% 0 in CLR
02:25 75.9 °F 70.7 °F 30 in NNE 2.9 mph 5.8 mph 84% 0 in CLR
02:30 75.9 °F 70.3 °F 30 in NNW 3.6 mph 2.4 mph 83% 0 in CLR
02:35 75.9 °F 70.3 °F 30 in NW 3 mph 5 mph 83% 0 in CLR
02:40 75.7 °F 70.2 °F 30 in NW 2.9 mph 5.8 mph 83% 0 in CLR
02:45 75.7 °F 70.2 °F 30 in WNW 2 mph 6 mph 83% 0 in CLR
02:50 75.9 °F 70 °F 30 in WNW 2 mph 5 mph 82% 0 in CLR
02:55 75.9 °F 70 °F 30 in WNW 2 mph 5 mph 82% 0 in CLR
03:00 75.9 °F 70 °F 30 in West 2 mph 6 mph 82% 0 in CLR
03:05 75.9 °F 70 °F 30 in SW 2 mph 6 mph 82% 0 in CLR
03:10 75.9 °F 70 °F 30 in WSW 2.9 mph 2.3 mph 82% 0 in CLR
03:15 76.1 °F 69.8 °F 30 in West 2 mph 6 mph 81% 0 in CLR
03:20 76.1 °F 69.8 °F 29.9 in NW 2.9 mph   81% 0 in CLR
03:25 76.1 °F 69.8 °F 29.9 in WNW 2 mph 5 mph 81% 0 in CLR
03:30 75.9 °F 69.6 °F 29.9 in WNW 2.4 mph 5.8 mph 81% 0 in CLR
03:35 75.9 °F 70 °F 29.9 in WNW 2 mph 7 mph 82% 0 in CLR
03:40 75.7 °F 70 °F 29.9 in West 4 mph 6.9 mph 82% 0 in CLR
03:45 75.7 °F 69.8 °F 29.9 in West 5 mph 7 mph 82% 0 in CLR
03:50 75.6 °F 69.6 °F 29.9 in West 4 mph 4.3 mph 82% 0 in CLR
03:55 75.6 °F 70 °F 29.9 in WNW 5 mph 6 mph 83% 0 in CLR
04:00 75.6 °F 70 °F 29.9 in WNW 2 mph 5 mph 83% 0 in CLR
04:05 75.6 °F 70 °F 30 in WSW 2 mph 6 mph 83% 0 in CLR
04:10 75.6 °F 69.6 °F 30 in SW 3.6 mph 4.6 mph 82% 0 in CLR
04:15 75.6 °F 69.6 °F 30 in WSW 3 mph 5 mph 82% 0 in CLR
04:20 75.6 °F 69.6 °F 29.9 in West 2 mph 2.9 mph 82% 0 in CLR
04:25 75.6 °F 69.3 °F 29.9 in West 2 mph 5 mph 81% 0 in CLR
04:30 75.6 °F 69.3 °F 29.9 in SW 2.9 mph   81% 0 in CLR
04:35 75.6 °F 69.3 °F 29.9 in WSW 2 mph 4 mph 81% 0 in CLR
04:40 75.7 °F 69.4 °F 29.9 in West 1 mph 3 mph 81% 0 in CLR
04:45 75.7 °F 69.4 °F 29.9 in NW 1 mph 4 mph 81% 0 in CLR
04:50 75.6 °F 69.3 °F 29.9 in West 1.8 mph 3.5 mph 81% 0 in CLR
04:55 75.6 °F 69.3 °F 29.9 in WSW 2 mph 6 mph 81% 0 in CLR
05:00 75.4 °F 69.1 °F 29.9 in WSW 3 mph 7 mph 81% 0 in CLR
05:05 75.4 °F 69.1 °F 29.9 in SW 3 mph 6 mph 81% 0 in CLR
05:10 75.4 °F 69.1 °F 29.9 in WSW 3.6 mph 3.5 mph 81% 0 in CLR
05:15 75.4 °F 69.1 °F 29.9 in SW 3 mph 5 mph 81% 0 in CLR
05:20 75.2 °F 68.5 °F 29.9 in SSW 3 mph 6 mph 80% 0 in CLR
05:25 75 °F 68.4 °F 29.9 in South 3 mph 7 mph 80% 0 in CLR
05:30 75 °F 68.4 °F 29.9 in SSE 4.3 mph 4.6 mph 80% 0 in CLR
05:35 74.8 °F 68.4 °F 29.9 in South 5 mph 5 mph 80% 0 in CLR
05:40 74.8 °F 68.4 °F 29.9 in SSE 3.1 mph 5.8 mph 80% 0 in CLR
05:45 74.8 °F 68.4 °F 29.9 in SSE 3 mph 6 mph 80% 0 in CLR
05:50 74.8 °F 68.4 °F 29.9 in South 2 mph 6 mph 80% 0 in CLR
05:55 74.8 °F 68.4 °F 29.9 in South 2 mph 5 mph 80% 0 in CLR
06:00 74.8 °F 67.8 °F 29.9 in SSW 2 mph 3 mph 79% 0 in CLR
06:05 74.8 °F 67.8 °F 29.9 in SSW 2 mph 5 mph 79% 0 in CLR
06:10 74.8 °F 67.8 °F 29.9 in SSW 1.8 mph   79% 0 in CLR
06:15 74.8 °F 67.8 °F 29.9 in SW 2 mph 6 mph 79% 0 in CLR
06:20 75 °F 67.6 °F 30 in SW 2.9 mph 6.9 mph 78% 0 in CLR
06:25 75 °F 67.6 °F 30 in SW 2 mph 7 mph 78% 0 in CLR
06:30 75 °F 67.6 °F 30 in WNW 3.6 mph 4.6 mph 78% 0 in CLR
06:35 74.8 °F 67.5 °F 30 in West 3 mph 6 mph 78% 0 in CLR
06:40 74.7 °F 67.3 °F 30 in West 3 mph 6 mph 78% 0 in CLR
06:45 74.5 °F 67.3 °F 30 in WNW 3 mph 3 mph 78% 0 in CLR
06:50 74.5 °F 67.3 °F 30 in WNW 1 mph 5 mph 78% 0 in CLR
06:55 74.3 °F 66.9 °F 30 in WNW 1 mph 5 mph 78% 0 in CLR
07:00 74.3 °F 66.9 °F 30 in West 2 mph 4 mph 78% 0 in CLR
07:05 74.5 °F 67.3 °F 30 in South 2.4 mph 5.8 mph 78% 0 in CLR
07:10 74.5 °F 67.3 °F 30 in SSE 3.6 mph 6.9 mph 78% 0 in CLR
07:15 74.3 °F 67.5 °F 30 in South 3 mph 7 mph 79% 0 in CLR
07:20 74.1 °F 67.3 °F 30 in South 3.1 mph 4.6 mph 79% 0 in CLR
07:25 74.1 °F 67.3 °F 30 in South 3 mph 5 mph 79% 0 in CLR
07:30 74.1 °F 67.3 °F 30 in South 2 mph 2.3 mph 79% 0 in CLR
07:35 74.3 °F 66.9 °F 30 in SSW 2 mph 4.6 mph 78% 0 in CLR
07:40 74.3 °F 66.9 °F 30 in West 2.9 mph 4.6 mph 78% 0 in CLR
07:45 74.5 °F 67.3 °F 30 in WNW 2 mph 5 mph 78% 0 in CLR
07:50 74.7 °F 67.3 °F 30 in NW 2 mph 1.2 mph 78% 0 in CLR
07:55 74.8 °F 67.1 °F 30 in NW 2 mph 5 mph 77% 0 in CLR
08:00 74.8 °F 67.1 °F 30 in NW 2 mph 5 mph 77% 0 in CLR
08:05 75 °F 66.9 °F 30 in NW 2 mph 5 mph 76% 0 in CLR
08:10 75 °F 66.6 °F 30 in NW 2 mph 5 mph 75% 0 in CLR
08:15 75.2 °F 66.7 °F 30 in WNW 2 mph 3 mph 75% 0 in CLR
08:20 75.4 °F 66.6 °F 30 in WNW 2 mph 5 mph 74% 0 in CLR
08:25 75.6 °F 66.7 °F 30 in WNW 2 mph 5 mph 74% 0 in CLR
08:30 75.6 °F 66.7 °F 30 in WNW 2.4 mph 3.5 mph 74% 0 in CLR
08:35 75.6 °F 66.4 °F 30 in WNW 2.4 mph 4.6 mph 73% 0 in CLR
08:40 75.6 °F 66.4 °F 30 in West 2.9 mph 5.8 mph 73% 0 in CLR
08:45 75.7 °F 66.6 °F 30 in WNW 2 mph 6 mph 73% 0 in CLR
08:50 75.9 °F 66.6 °F 30 in West 2.4 mph 2.3 mph 73% 0 in CLR
08:55 76.1 °F 66.7 °F 30 in West 2 mph 5 mph 73% 0 in CLR
09:00 76.3 °F 66.9 °F 30 in WNW 2 mph 5 mph 73% 0 in CLR
09:05 76.5 °F 66.7 °F 30 in NW 2 mph 5 mph 72% 0 in CLR
09:10 76.6 °F 66.9 °F 30 in NW 2.4 mph   72% 0 in CLR
09:15 76.8 °F 66.7 °F 30 in NW 2 mph 2 mph 71% 0 in CLR
09:20 77.2 °F 66.9 °F 30 in SSE 1.4 mph 2.4 mph 71% 0 in CLR
09:25 77.4 °F 66.7 °F 30 in SW 1 mph 5 mph 70% 0 in CLR
09:30 77.7 °F 67.3 °F 30 in NW 2 mph 3.5 mph 70% 0 in CLR
09:35 77.9 °F 66.9 °F 30 in SSW 2 mph 7 mph 69% 0 in CLR
09:40 77.7 °F 66.7 °F 30 in SW 4 mph 6.9 mph 69% 0 in CLR
09:45 77.7 °F 66.7 °F 30 in South 5 mph 7 mph 69% 0 in CLR
09:50 78.1 °F 66.9 °F 30 in South 5 mph 7 mph 69% 0 in CLR
09:55 78.3 °F 67.3 °F 30 in South 5 mph 7 mph 69% 0 in CLR
10:00 78.1 °F 67.1 °F 30 in South 5 mph 6 mph 69% 0 in CLR
10:05 78.4 °F 67.5 °F 30 in SE 5 mph 5 mph 69% 0 in CLR
10:10 79 °F 67.5 °F 30 in SSE 2 mph 8 mph 68% 0 in CLR
10:15 79 °F 67.5 °F 30 in WSW 2 mph 7 mph 68% 0 in CLR
10:20 79 °F 67.5 °F 30 in SSW 5 mph 7 mph 68% 0 in CLR
10:25 79.2 °F 67.6 °F 30 in SSE 5 mph 7 mph 68% 0 in CLR
10:30 79.5 °F 67.6 °F 30 in SSE 2 mph 9 mph 67% 0 in CLR
10:35 79.5 °F 67.3 °F 30 in SSE 2 mph 8 mph 66% 0 in CLR
10:40 79.5 °F 67.3 °F 30 in South 5 mph 8 mph 66% 0 in CLR
10:45 79.9 °F 67.5 °F 30 in South 5 mph 6 mph 66% 0 in CLR
10:50 80.2 °F 67.5 °F 30 in SW 2.9 mph 4.6 mph 65% 0 in CLR
10:55 80.6 °F 67.3 °F 30 in SSE 2 mph 9 mph 64% 0 in CLR
11:00 80.4 °F 67.3 °F 30 in SSW 3 mph 5 mph 64% 0 in CLR
11:05 81.1 °F 67.3 °F 30 in South 3 mph 7 mph 63% 0 in CLR
11:10 81.3 °F 67.5 °F 30 in SE 3.1 mph 5.4 mph 63% 0 in CLR
11:15 81.7 °F 67.5 °F 30 in SE 3 mph 8 mph 62% 0 in CLR
11:20 81.3 °F 66.6 °F 30 in ESE 5 mph 8 mph 61% 0 in CLR
11:25 81.7 °F 67.5 °F 30 in East 5 mph 7 mph 62% 0 in CLR
11:30 82 °F 66.7 °F 30 in SE 4.3 mph 6.9 mph 60% 0 in CLR
11:35 82 °F 66.7 °F 30 in ESE 5 mph 9 mph 60% 0 in CLR
11:40 82.2 °F 67.5 °F 30 in NNE 4.3 mph 4.6 mph 61% 0 in CLR
11:45 82.8 °F 66.4 °F 30 in ESE 5 mph 8 mph 58% 0 in CLR
11:50 82.8 °F 66.6 °F 30 in North 4 mph 5.8 mph 58% 0 in CLR
11:55 82.8 °F 66.6 °F 30 in NE 5 mph 6 mph 58% 0 in CLR
12:00 83.1 °F 66.7 °F 30 in NNE 3 mph 7 mph 58% 0 in CLR
12:05 83.7 °F 67.3 °F 30 in NNE 3 mph 6 mph 58% 0 in CLR
12:10 83.7 °F 66.4 °F 30 in NNW 3 mph 6 mph 56% 0 in CLR
12:15 83.8 °F 66.6 °F 30 in SE 3.1 mph 4.6 mph 56% 0 in CLR
12:20 84.4 °F 65.8 °F 30 in ENE 3.1 mph 6.9 mph 54% 0 in CLR
12:25 84.4 °F 65.8 °F 30 in NNE 3 mph 7 mph 54% 0 in CLR
12:30 84.6 °F 65.5 °F 30 in NNE 4 mph 5.8 mph 53% 0 in CLR
12:35 84.7 °F 65.7 °F 30 in NNE 5 mph 7 mph 53% 0 in CLR
12:40 84.7 °F 66.4 °F 30 in NE 5 mph 12 mph 54% 0 in CLR
12:45 84.6 °F 66.6 °F 30 in NNE 5 mph 12 mph 55% 0 in CLR
12:50 84.9 °F 66.9 °F 30 in NNW 4.7 mph 6.4 mph 55% 0 in CLR
12:55 85.3 °F 66.7 °F 30 in NNE 5 mph 8 mph 54% 0 in CLR
13:00 85.3 °F 67.3 °F 30 in NE 5 mph 7 mph 55% 0 in CLR
13:05 85.5 °F 66.9 °F 30 in NE 5 mph 12 mph 54% 0 in CLR
13:10 85.6 °F 67.1 °F 30 in NE 4.7 mph 4.6 mph 54% 0 in CLR
13:15 86 °F 67.5 °F 30 in ESE 5 mph 10 mph 54% 0 in CLR
13:20 86 °F 67.5 °F 30 in ENE 5.2 mph 10.4 mph 54% 0 in CLR
13:25 86.2 °F 68.2 °F 30 in NE 5 mph 10 mph 55% 0 in CLR
13:30 86.5 °F 67.5 °F 30 in NE 5 mph 11 mph 53% 0 in CLR
13:35 86.5 °F 67.8 °F 30 in NNE 5 mph 9 mph 54% 0 in CLR
13:40 86.9 °F 68.4 °F 30 in NNE 6 mph 13 mph 54% 0 in CLR
13:45 87.1 °F 67.8 °F 30 in NNE 6 mph 13 mph 53% 0 in CLR
13:50 87.1 °F 67.8 °F 29.9 in NE 6 mph 10 mph 53% 0 in CLR
13:55 87.4 °F 67.6 °F 29.9 in NNE 6 mph 11 mph 52% 0 in CLR
14:00 87.8 °F 66.7 °F 29.9 in NNE 7 mph 13 mph 50% 0 in CLR
14:05 88.2 °F 67.3 °F 29.9 in NE 7 mph 15 mph 50% 0 in CLR
14:10 88 °F 66.9 °F 29.9 in North 8.1 mph 12.7 mph 50% 0 in CLR
14:15 88.2 °F 67.8 °F 29.9 in NE 8.1 mph 9.2 mph 51% 0 in CLR
14:20 88.3 °F 67.3 °F 29.9 in NE 7.6 mph 12.7 mph 50% 0 in CLR
14:25 88.3 °F 67.8 °F 29.9 in NE 8 mph 17 mph 51% 0 in CLR
14:30 88.3 °F 67.8 °F 29.9 in NE 9.2 mph 18.4 mph 51% 0 in CLR
14:35 88.5 °F 67.6 °F 29.9 in NE 9 mph 16 mph 50% 0 in CLR
14:40 89.1 °F 68 °F 29.9 in NE 7 mph 15 mph 50% 0 in CLR
14:45 89.2 °F 68.2 °F 29.9 in NE 7 mph 13 mph 50% 0 in CLR
14:50 89.1 °F 68 °F 29.9 in ENE 8.1 mph 9.2 mph 50% 0 in CLR
14:55 89.2 °F 68.2 °F 29.9 in NE 8 mph 17 mph 50% 0 in CLR
15:00 89.8 °F 68.2 °F 29.9 in NE 8 mph 15 mph 49% 0 in CLR
15:05 90.1 °F 67.8 °F 29.9 in NE 8 mph 13 mph 48% 0 in CLR
15:10 90 °F 66.9 °F 29.9 in NNE 8.5 mph 20.7 mph 47% 0 in CLR
15:15 89.6 °F 67.3 °F 29.9 in NE 8 mph 21 mph 48% 0 in CLR
15:20 89.8 °F 66.9 °F 29.9 in NE 10 mph 17 mph 47% 0 in CLR
15:25 90 °F 66.9 °F 29.9 in ESE 10.2 mph 12.7 mph 47% 0 in CLR
15:30 90.3 °F 67.5 °F 29.9 in NNE 9.2 mph 15 mph 47% 0 in CLR
15:35 90.3 °F 67.3 °F 29.9 in NE 9 mph 17 mph 47% 0 in CLR
15:40 90 °F 66.9 °F 29.9 in NE 8.7 mph 20.7 mph 47% 0 in CLR
15:45 90.1 °F 67.3 °F 29.9 in NE 9 mph 17 mph 47% 0 in CLR
15:50 90.1 °F 67.3 °F 29.9 in ENE 11.2 mph 12.7 mph 47% 0 in CLR
15:55 90.5 °F 67.5 °F 29.9 in NE 12 mph 15 mph 47% 0 in CLR
16:00 90.7 °F 67.1 °F 29.9 in NE 9 mph 17 mph 46% 0 in CLR
16:05 90.3 °F 67.3 °F 29.9 in NE 9 mph 21 mph 47% 0 in CLR
16:10 90.3 °F 66.7 °F 29.9 in ENE 11.2 mph 17.3 mph 46% 0 in CLR
16:15 90.5 °F 66.9 °F 29.9 in NE 12 mph 19 mph 46% 0 in CLR
16:20 90.3 °F 66.7 °F 29.9 in NE 11.8 mph 15 mph 46% 0 in CLR
16:25 90.7 °F 66.4 °F 29.9 in NE 12 mph 17 mph 45% 0 in CLR
16:30 90.7 °F 66.4 °F 29.9 in NE 10 mph 12.7 mph 45% 0 in CLR
16:35 91 °F 66.7 °F 29.9 in NE 10 mph 17 mph 45% 0 in CLR
16:40 90.9 °F 65.8 °F 29.9 in NE 10 mph 17 mph 44% 0 in CLR
16:45 90.7 °F 65.8 °F 29.9 in NE 10 mph 19 mph 44% 0 in CLR
16:50 90.7 °F 66.4 °F 29.9 in East 11.2 mph 16.1 mph 45% 0 in CLR
16:55 90.9 °F 65.8 °F 29.9 in NE 12 mph 16 mph 44% 0 in CLR
17:00 91 °F 66 °F 29.9 in NE 10 mph 20 mph 44% 0 in CLR
17:05 90.9 °F 65.8 °F 29.9 in NE 10 mph 16 mph 44% 0 in CLR
17:10 91.2 °F 66.4 °F 29.9 in NE 10 mph 17 mph 44% 0 in CLR
17:15 90.7 °F 65.7 °F 29.9 in NE 10 mph 21 mph 44% 0 in CLR
17:20 90.7 °F 65.8 °F 29.9 in East 12.5 mph 12.7 mph 44% 0 in CLR
17:25 91 °F 65.5 °F 29.9 in NE 13 mph 17 mph 43% 0 in CLR
17:30 90.7 °F 66.4 °F 29.9 in NE 11.4 mph 16.1 mph 45% 0 in CLR
17:35 90.7 °F 66.4 °F 29.9 in NE 11.4 mph 13.8 mph 45% 0 in CLR
17:40 90.5 °F 66.4 °F 29.9 in NNE 11.8 mph 15 mph 45% 0 in CLR
17:45 90.7 °F 66.6 °F 29.9 in NE 12 mph 19 mph 45% 0 in CLR
17:50 90.7 °F 66.4 °F 29.9 in NNE 10 mph 21.9 mph 45% 0 in CLR
17:55 90.5 °F 66.4 °F 29.9 in NE 10 mph 22 mph 45% 0 in CLR
18:00 90.5 °F 66.4 °F 29.9 in NE 12 mph 17 mph 45% 0 in CLR
18:05 90.3 °F 66.7 °F 29.9 in NE 12 mph 17 mph 46% 0 in CLR
18:10 90.3 °F 66.7 °F 29.9 in NNE 11.4 mph 20.7 mph 46% 0 in CLR
18:15 90 °F 66.9 °F 29.9 in NE 12 mph 20 mph 47% 0 in CLR
18:20 89.8 °F 67.5 °F 29.9 in NNE 12.3 mph 11.5 mph 48% 0 in CLR
18:25 90 °F 66.9 °F 29.9 in NE 13 mph 17 mph 47% 0 in CLR
18:30 90 °F 67.6 °F 29.9 in NE 10 mph 18 mph 48% 0 in CLR
18:35 90 °F 67.6 °F 29.9 in NE 10 mph 17 mph 48% 0 in CLR
18:40 89.8 °F 67.5 °F 29.9 in NE 10.7 mph 16.1 mph 48% 0 in CLR
18:45 89.4 °F 67.3 °F 29.9 in NE 10 mph 18 mph 48% 0 in CLR
18:50 89.4 °F 67.1 °F 29.9 in ENE 10.2 mph 17.3 mph 48% 0 in CLR
18:55 89.4 °F 67.1 °F 29.9 in NE 10 mph 16 mph 48% 0 in CLR
19:00 89.8 °F 67.5 °F 29.9 in NE 9 mph 16 mph 48% 0 in CLR
19:05 89.8 °F 67.5 °F 29.9 in NE 9 mph 16 mph 48% 0 in CLR
19:10 89.8 °F 67.5 °F 29.9 in NE 9 mph 16 mph 48% 0 in CLR
19:15 90 °F 67.6 °F 29.9 in ENE 9 mph 12 mph 48% 0 in CLR
19:20 89.8 °F 67.5 °F 29.9 in ENE 6.9 mph 10.4 mph 48% 0 in CLR
19:25 89.8 °F 66.2 °F 29.9 in ENE 7 mph 13 mph 46% 0 in CLR
19:30 89.8 °F 66.9 °F 29.9 in East 6.4 mph 6.2 mph 47% 0 in CLR
19:35 89.8 °F 66.9 °F 29.9 in ESE 7 mph 7 mph 47% 0 in CLR
19:40 89.4 °F 65.8 °F 29.9 in ESE 5.4 mph 12.7 mph 46% 0 in CLR
19:45 89.2 °F 66.4 °F 29.9 in ESE 6 mph 12 mph 47% 0 in CLR
19:50 89.1 °F 66.2 °F 29.9 in ESE 6.9 mph 10.7 mph 47% 0 in CLR
19:55 88.9 °F 66 °F 29.9 in ESE 7 mph 11 mph 47% 0 in CLR
20:00 88.9 °F 66.6 °F 29.9 in SE 7 mph 15 mph 48% 0 in CLR
20:05 88.3 °F 66.7 °F 29.9 in SE 7 mph 15 mph 49% 0 in CLR
20:10 88 °F 66.9 °F 29.9 in SE 9 mph 17 mph 50% 0 in CLR
20:15 87.4 °F 67.1 °F 29.9 in ESE 9 mph 14 mph 51% 0 in CLR
20:20 87.1 °F 66.7 °F 29.9 in ESE 9.7 mph 15 mph 51% 0 in CLR
20:25 86.9 °F 66.6 °F 29.9 in ESE 9 mph 15 mph 51% 0 in CLR
20:30 86.5 °F 66.7 °F 29.9 in SE 10 mph 11.5 mph 52% 0 in CLR
20:35 86.4 °F 66.7 °F 29.9 in ESE 10 mph 20 mph 52% 0 in CLR
20:40 85.8 °F 66.7 °F 29.9 in SE 10 mph 22 mph 53% 0 in CLR
20:45 85.6 °F 67.1 °F 29.9 in SE 10 mph 17 mph 54% 0 in CLR
20:50 85.3 °F 66.7 °F 29.9 in ESE 10.2 mph 16.1 mph 54% 0 in CLR
20:55 84.9 °F 67.5 °F 29.9 in ESE 10 mph 18 mph 56% 0 in CLR
21:00 84.4 °F 68 °F 29.9 in ESE 12 mph 20 mph 58% 0 in CLR
21:05 83.8 °F 68.5 °F 29.9 in ESE 12 mph 15 mph 60% 0 in CLR
21:10 83.8 °F 69.1 °F 29.9 in ESE 9 mph 12 mph 61% 0 in CLR
21:15 83.7 °F 69.3 °F 29.9 in East 8.7 mph 11.5 mph 62% 0 in CLR
21:20 83.5 °F 70 °F 29.9 in ESE 7.6 mph 10.4 mph 64% 0 in CLR
21:25 83.5 °F 70.3 °F 29.9 in ESE 8 mph 13 mph 65% 0 in CLR
21:30 82.9 °F 70.3 °F 29.9 in ESE 7.6 mph 9.2 mph 66% 0 in CLR
21:35 82.8 °F 70.3 °F 29.9 in ESE 8 mph 14 mph 66% 0 in CLR
21:40 82.6 °F 70.5 °F 29.9 in ESE 6.4 mph 11.5 mph 67% 0 in CLR
21:43 82.4 °F 70.9 °F 29.9 in ESE 6.4 mph 10.4 mph 68% 0 in CLR
22:00 81.9 °F 70.7 °F 29.9 in ESE 6.2 mph 10.4 mph 69% 0 in CLR
22:05 81.9 °F 70.7 °F 29.9 in ENE 6.2 mph 8.1 mph 69% 0 in CLR
22:10 81.9 °F 70.7 °F 29.9 in ESE 5.2 mph 6.9 mph 69% 0 in CLR
22:15 81.7 °F 70.5 °F 29.9 in ESE 5.2 mph 5.8 mph 69% 0 in CLR
22:20 81.9 °F 70.7 °F 29.9 in NE 4.3 mph 5.8 mph 69% 0 in CLR
22:25 81.9 °F 70.7 °F 29.9 in ESE 4.3 mph 5.4 mph 69% 0 in CLR
22:30 82 °F 70.9 °F 29.9 in East 3.1 mph 5.8 mph 69% 0 in CLR
22:35 81.9 °F 70.7 °F 29.9 in ESE 3.1 mph 2.3 mph 69% 0 in CLR
22:40 81.9 °F 70.7 °F 29.9 in NE 2.4 mph 4.6 mph 69% 0 in CLR
22:45 81.7 °F 70.5 °F 29.9 in NE 2.4 mph 3.5 mph 69% 0 in CLR
22:50 81.3 °F 70.5 °F 29.9 in ENE 2.9 mph 4.6 mph 70% 0 in CLR
22:55 81.1 °F 70.3 °F 29.9 in NE 2.9 mph 4.6 mph 70% 0 in CLR
23:00 81.1 °F 70.9 °F 29.9 in NE 3.1 mph 4.6 mph 71% 0 in CLR
23:05 81 °F 70.7 °F 29.9 in NE 3.1 mph 4.7 mph 71% 0 in CLR
23:10 81 °F 70.7 °F 29.9 in NNE 3.6 mph 5.8 mph 71% 0 in CLR
23:15 80.6 °F 70.7 °F 29.9 in NNE 3.6 mph 8.1 mph 72% 0 in CLR
23:20 80.4 °F 70.5 °F 29.9 in NNE 5.2 mph 5.8 mph 72% 0 in CLR
23:25 80.2 °F 70.3 °F 29.9 in NNE 5.2 mph 4.6 mph 72% 0 in CLR
23:30 80.2 °F 70.3 °F 29.9 in NE 3.1 mph 4.6 mph 72% 0 in CLR
23:35 80.2 °F 70.3 °F 29.9 in NE 3.1 mph 4 mph 72% 0 in CLR
23:40 80.2 °F 70.3 °F 29.9 in ESE 3.1 mph 3.5 mph 72% 0 in CLR
23:45 80.4 °F 70.5 °F 29.9 in ESE 3.1 mph 4.6 mph 72% 0 in CLR
23:50 80.4 °F 70.5 °F 29.9 in SE 3.6 mph 6.9 mph 72% 0 in CLR
23:55 80.2 °F 70.9 °F 29.9 in SE 3.6 mph 4.6 mph 73% 0 in CLR
Murcia-Puente Tocinos, España
Compliments of Weather Underground - 2.5 mb

La estación de MeteoMurcia.com, publica sus datos en los siguientes proyectos:

Weather Underground PWS IMURCIAP2 Meteoclimatic www.awekas.at

W3Counter
Web Analytics